Le nostre stazioni meteo in Italia

Pubblicità
Il mio iltempo24.it
Palermo/Punta Raisi, Italia (16405): Temperatura & dewpoint: 12.01.2020 11:00:00 - 18.01.2020 11:00:00 (CET)Palermo/Punta Raisi, Italia (16405): velocità del vento: 12.01.2020 11:00:00 - 18.01.2020 11:00:00 (CET)Palermo/Punta Raisi, Italia (16405): direzione del vento: 12.01.2020 11:00:00 - 18.01.2020 11:00:00 (CET)Palermo/Punta Raisi, Italia (16405): reduced air pressure: 12.01.2020 11:00:00 - 18.01.2020 11:00:00 (CET)Palermo/Punta Raisi, Italia (16405): visibility: 12.01.2020 11:00:00 - 18.01.2020 11:00:00 (CET)Palermo/Punta Raisi, Italia (16405): precipitazioni: 12.01.2020 11:00:00 - 18.01.2020 11:00:00 (CET)
Data & Tempo tt [°C] td [°C] ff [km/h] ff [kn] dd ppp [hPa] vv [km] rr [mm]
18.01.2020 11:00:00 - - - - - - - -
18.01.2020 10:00:00 14,6 7,2 21 11 S 1026,0 10 0,0
18.01.2020 09:00:00 13,0 6,0 21 11 SSO - 10 -
18.01.2020 08:00:00 10,0 4,0 16 9 S - 10 -
18.01.2020 07:00:00 10,4 4,0 13 7 SSE 1026,0 10 -
18.01.2020 06:00:00 10,0 5,0 11 6 SSE - 10 -
18.01.2020 05:00:00 - - - - - - - -
18.01.2020 04:00:00 9,7 4,3 11 6 SSE 1026,8 10 0,0
18.01.2020 03:00:00 11,0 4,0 9 5 SSE - 10 -
18.01.2020 02:00:00 10,0 4,0 11 6 SSE - 10 -
18.01.2020 01:00:00 11,4 4,4 2 1 - 1026,9 10 -
18.01.2020 00:00:00 14,0 4,0 9 5 NNO - 10 -
17.01.2020 23:00:00 14,0 6,0 13 7 NNO - 10 -
17.01.2020 22:00:00 13,9 5,6 13 7 N 1027,6 10 0,0
17.01.2020 21:00:00 14,0 6,0 11 6 NNO - 10 -
17.01.2020 20:00:00 13,0 7,0 2 1 SSE - 10 -
17.01.2020 19:00:00 12,5 6,5 5 3 S 1027,4 10 -
17.01.2020 18:00:00 13,0 5,0 2 1 SE - 10 -
17.01.2020 17:00:00 13,0 5,0 5 3 ENE - 10 -
17.01.2020 16:00:00 13,7 5,5 5 3 NE 1026,6 10 0,0
17.01.2020 15:00:00 14,0 6,0 9 5 NNE - 10 -
17.01.2020 14:00:00 14,0 6,0 8 4 N - 10 -
17.01.2020 13:00:00 14,1 5,7 9 5 NNE 1027,6 10 -
17.01.2020 12:00:00 13,0 5,0 8 4 NO - 10 -
17.01.2020 11:00:00 14,0 6,0 15 8 NO - 10 -
17.01.2020 10:00:00 13,4 5,6 15 8 NNO 1028,2 10 0,0
17.01.2020 09:00:00 13,0 5,0 9 5 E - 10 -
17.01.2020 08:00:00 13,0 5,0 11 6 ENE - 10 -
17.01.2020 07:00:00 12,9 5,0 16 9 N 1027,6 10 -
17.01.2020 06:00:00 12,0 5,0 8 4 E - 10 -
17.01.2020 05:00:00 13,0 5,0 11 6 NNE - 10 -
17.01.2020 04:00:00 13,4 6,0 9 5 N 1027,8 10 0,0
17.01.2020 03:00:00 13,0 5,0 9 5 NE - 10 -
17.01.2020 02:00:00 14,0 6,0 15 8 N - 10 -
17.01.2020 01:00:00 12,7 5,5 9 5 ENE 1028,2 10 -
17.01.2020 00:00:00 13,0 6,0 11 6 ENE - 10 -
16.01.2020 23:00:00 12,0 5,0 13 7 E - 10 -
16.01.2020 22:00:00 10,9 5,4 13 7 ENE 1028,5 10 0,0
16.01.2020 21:00:00 11,0 6,0 13 7 ENE - 10 -
16.01.2020 20:00:00 12,0 7,0 13 7 ENE - 10 -
16.01.2020 19:00:00 12,3 6,6 13 7 E 1028,7 10 -
16.01.2020 18:00:00 12,0 7,0 15 8 ENE - 10 -
16.01.2020 17:00:00 13,0 7,0 22 12 ENE - 10 -
16.01.2020 16:00:00 13,9 7,5 24 13 NE 1027,9 10 0,0
16.01.2020 15:00:00 14,0 8,0 24 13 NE - 10 -
16.01.2020 14:00:00 14,0 8,0 22 12 NE - 10 -
16.01.2020 13:00:00 14,2 7,5 21 11 NE 1028,9 10 -
16.01.2020 12:00:00 14,0 8,0 16 9 NE - 10 -
16.01.2020 11:00:00 14,0 8,0 18 10 ENE - 10 -
16.01.2020 10:00:00 12,8 8,4 5 3 SSO 1030,3 10 0,0
16.01.2020 09:00:00 9,0 7,0 4 2 - - 10 -
16.01.2020 08:00:00 8,0 7,0 5 3 SSE - 10 -
16.01.2020 07:00:00 7,8 5,7 5 3 SSE 1029,3 10 -
16.01.2020 06:00:00 7,0 5,0 5 3 SSE - 10 -
16.01.2020 05:00:00 8,0 5,0 4 2 SSE - 10 -
16.01.2020 04:00:00 8,0 5,8 5 3 S 1028,8 10 0,0
16.01.2020 03:00:00 9,0 6,0 5 3 SSE - 10 -
16.01.2020 02:00:00 8,0 5,0 8 4 ESE - 10 -
16.01.2020 01:00:00 9,0 6,0 5 3 E - 10 -
16.01.2020 00:00:00 9,0 6,0 9 5 SSE - 10 -
15.01.2020 23:00:00 8,0 6,0 8 4 SE - 10 -
15.01.2020 22:00:00 10,9 6,8 2 1 - 1029,5 10 0,0
15.01.2020 21:00:00 10,0 5,0 2 1 - - 10 -
15.01.2020 20:00:00 11,0 6,0 4 2 ESE - 10 -
15.01.2020 19:00:00 11,0 5,9 4 2 - 1028,9 10 -
15.01.2020 18:00:00 12,0 7,0 9 5 E - 10 -
15.01.2020 17:00:00 14,0 8,0 18 10 ENE - 10 -
15.01.2020 16:00:00 14,2 8,5 18 10 ENE 1027,4 10 0,0
15.01.2020 15:00:00 14,0 9,0 8 4 NNE - 10 -
15.01.2020 14:00:00 14,0 8,0 5 3 NO - 10 -
15.01.2020 13:00:00 13,6 7,9 9 5 O 1027,9 10 -
15.01.2020 12:00:00 13,0 7,0 8 4 O - 10 -
15.01.2020 11:00:00 13,0 7,0 5 3 OSO - 10 -
15.01.2020 10:00:00 12,0 7,0 4 2 - - 10 -
15.01.2020 09:00:00 8,0 6,0 8 4 S - 10 -
15.01.2020 08:00:00 7,0 5,0 5 3 S - 10 -
15.01.2020 07:00:00 8,0 5,6 4 2 SSE 1027,6 10 -
15.01.2020 06:00:00 7,0 5,0 9 5 SSE - 10 -
15.01.2020 05:00:00 8,0 5,0 5 3 S - 10 -
15.01.2020 04:00:00 7,7 4,6 8 4 S 1027,1 10 0,0
15.01.2020 03:00:00 8,0 6,0 5 3 S - 10 -
15.01.2020 02:00:00 10,0 6,0 4 2 SE - 10 -
15.01.2020 01:00:00 8,7 5,8 5 3 S 1027,4 10 -
15.01.2020 00:00:00 10,0 7,0 4 2 - - 10 -
14.01.2020 23:00:00 10,0 7,0 15 8 E - 10 -
14.01.2020 22:00:00 10,6 7,3 15 8 ENE 1027,6 10 0,0
14.01.2020 21:00:00 11,0 8,0 15 8 ENE - 10 -
14.01.2020 20:00:00 12,0 8,0 15 8 E - 10 -
14.01.2020 19:00:00 11,4 7,8 15 8 ENE 1027,0 10 -
14.01.2020 18:00:00 12,0 8,0 15 8 ENE - 10 -
14.01.2020 17:00:00 13,0 8,0 15 8 NE - 10 -
14.01.2020 16:00:00 13,9 8,6 18 10 NE 1025,9 10 0,0
14.01.2020 15:00:00 14,0 9,0 18 10 NE - 10 -
14.01.2020 14:00:00 14,0 8,0 16 9 NE - 10 -
14.01.2020 13:00:00 14,1 9,0 5 3 O 1025,6 10 -
14.01.2020 12:00:00 13,0 8,0 8 4 OSO - 10 -
14.01.2020 11:00:00 13,0 8,0 5 3 ONO - 10 -
14.01.2020 10:00:00 12,3 7,4 4 2 - 1026,6 10 0,0
14.01.2020 09:00:00 9,0 6,0 4 2 - - 10 -
14.01.2020 08:00:00 7,0 4,0 5 3 SSE - 10 -
14.01.2020 07:00:00 7,1 3,4 5 3 SSE 1026,1 10 -
14.01.2020 06:00:00 8,0 5,0 8 4 ESE - 10 -
14.01.2020 05:00:00 8,0 4,0 4 2 - - 10 -
14.01.2020 04:00:00 9,3 4,9 5 3 S 1024,8 10 0,0
14.01.2020 03:00:00 8,0 4,0 8 4 S - 10 -
14.01.2020 02:00:00 8,0 4,0 5 3 S - 10 -
14.01.2020 01:00:00 8,4 4,5 4 2 SSE 1024,7 10 -
14.01.2020 00:00:00 8,0 4,0 4 2 E - 10 -
13.01.2020 23:00:00 8,0 5,0 9 5 SSE - 10 -
13.01.2020 22:00:00 9,1 5,0 4 2 - 1025,1 10 0,0
13.01.2020 21:00:00 10,0 5,0 8 4 SE - 10 -
13.01.2020 20:00:00 13,0 7,0 4 2 - - 10 -
13.01.2020 19:00:00 11,6 6,1 13 7 E 1024,5 10 -
13.01.2020 18:00:00 12,0 7,0 18 10 E - 10 -
13.01.2020 17:00:00 13,0 8,0 16 9 ENE - 10 -
13.01.2020 16:00:00 14,1 8,0 21 11 ENE 1023,2 10 0,0
13.01.2020 15:00:00 14,0 8,0 16 9 ENE - 10 -
13.01.2020 14:00:00 14,0 8,0 11 6 NNE - 10 -
13.01.2020 13:00:00 14,2 8,3 5 3 NNO 1024,1 10 -
13.01.2020 12:00:00 13,0 7,0 5 3 O - 10 -
13.01.2020 11:00:00 13,0 7,0 2 1 - - 10 -
13.01.2020 10:00:00 11,8 7,3 5 3 S 1025,0 10 0,0
13.01.2020 09:00:00 9,0 5,0 5 3 S - 10 -
13.01.2020 08:00:00 8,0 5,0 11 6 SSO - 10 -
13.01.2020 07:00:00 8,4 4,8 9 5 SSE 1023,9 10 -
13.01.2020 06:00:00 10,0 5,0 2 1 - - 10 -
13.01.2020 05:00:00 9,0 5,0 5 3 S - 10 -
13.01.2020 04:00:00 10,3 5,3 4 2 S 1024,0 10 0,0
13.01.2020 03:00:00 - - - - - - - -
13.01.2020 02:00:00 10,0 5,0 4 2 S - 10 -
13.01.2020 01:00:00 9,3 5,0 5 3 SSO 1024,6 10 -
13.01.2020 00:00:00 10,0 4,0 8 4 S - 10 -
12.01.2020 23:00:00 11,0 4,0 4 2 - - 10 -
12.01.2020 22:00:00 11,6 5,5 8 4 SSE 1024,7 10 0,0
12.01.2020 21:00:00 12,0 6,0 13 7 ENE - 10 -
12.01.2020 20:00:00 11,0 5,0 18 10 ENE - 10 -
12.01.2020 19:00:00 11,0 5,8 15 8 ENE 1024,3 10 -
12.01.2020 18:00:00 12,0 6,0 15 8 ENE - 10 -
12.01.2020 17:00:00 13,0 7,0 16 9 ENE - 10 -
12.01.2020 16:00:00 13,9 7,6 16 9 ENE 1023,2 10 0,0
12.01.2020 15:00:00 14,0 8,0 21 11 NE - 10 -
12.01.2020 14:00:00 14,0 9,0 15 8 NNE - 10 -
12.01.2020 13:00:00 13,7 8,4 13 7 N 1024,0 10 -
12.01.2020 12:00:00 14,0 7,0 5 3 NNO - 10 -
12.01.2020 11:00:00 13,0 5,0 4 2 - - 10 -

tt = Temperatura
td = dewpoint
ff = velocità del vento
dd = direzione del vento
ppp = reduced air pressure
vv = visibility
rr = precipitazioni

Stazioni seguenti

WeatherPro
AMSI
MeteoEarth